Open Text Net Profit Margin 2006-2021 | OTEX

Current and historical net profit margin for Open Text (OTEX) from 2006 to 2021. Net profit margin can be defined as net Income as a portion of total sales revenue. Open Text net profit margin for the three months ending March 31, 2021 was .
Open Text Net Profit Margin Historical Data
Date TTM Revenue TTM Net Income Net Margin
2021-03-31 $3.32B $0.16B 4.67%
2020-12-31 $3.30B $0.09B 2.73%
2020-09-30 $3.22B $0.26B 8.14%
2020-06-30 $3.11B $0.23B 7.49%
2020-03-31 $3.03B $0.28B 9.20%
2019-12-31 $2.94B $0.33B 11.11%
2019-09-30 $2.90B $0.32B 11.15%
2019-06-30 $2.87B $0.29B 9.94%
2019-03-31 $2.88B $0.28B 9.57%
2018-12-31 $2.84B $0.26B 9.18%
2018-09-30 $2.84B $0.24B 8.52%
2018-06-30 $2.82B $0.24B 8.63%
2018-03-31 $2.73B $0.23B 8.33%
2017-12-31 $2.63B $0.19B 7.22%
2017-09-30 $2.44B $0.15B 6.15%
2017-06-30 $2.29B $1.03B 44.76%
2017-03-31 $2.11B $1.07B 50.47%
2016-12-31 $1.96B $1.11B 56.79%
2016-09-30 $1.88B $1.16B 61.42%
2016-06-30 $1.83B $0.28B 15.56%
2016-03-31 $1.82B $0.27B 14.64%
2015-12-31 $1.83B $0.23B 12.29%
2015-09-30 $1.83B $0.21B 11.50%
2015-06-30 $1.85B $0.24B 12.68%
2015-03-31 $1.86B $0.25B 13.63%
2014-12-31 $1.86B $0.27B 14.69%
2014-09-30 $1.76B $0.25B 14.42%
2014-06-30 $1.63B $0.22B 13.48%
2014-03-31 $1.48B $0.17B 11.71%
2013-12-31 $1.37B $0.15B 11.14%
2013-09-30 $1.36B $0.16B 11.76%
2013-06-30 $1.36B $0.15B 10.86%
2013-03-31 $1.32B $0.11B 8.62%
2012-12-31 $1.28B $0.12B 9.64%
2012-09-30 $1.25B $0.11B 8.76%
2012-06-30 $1.21B $0.13B 10.36%
2012-03-31 $1.19B $0.15B 12.31%
2011-12-31 $1.16B $0.15B 12.71%
2011-09-30 $1.10B $0.14B 12.42%
2011-06-30 $1.03B $0.12B 12.02%
2011-03-31 $0.99B $0.15B 14.89%
2010-12-31 $0.94B $0.12B 13.23%
2010-09-30 $0.92B $0.11B 11.76%
2010-06-30 $0.91B $0.09B 9.65%
2010-03-31 $0.88B $0.06B 6.29%
2009-12-31 $0.85B $0.06B 7.49%
2009-09-30 $0.81B $0.04B 5.41%
2009-06-30 $0.79B $0.06B 7.25%
2009-03-31 $0.78B $0.07B 8.30%
2008-12-31 $0.77B $0.05B 6.49%
2008-09-30 $0.75B $0.06B 8.05%
2008-06-30 $0.73B $0.05B 7.30%
2008-03-31 $0.70B $0.03B 4.85%
2007-12-31 $0.68B $0.03B 4.57%
2007-09-30 $0.66B $0.02B 3.34%
2007-06-30 $0.60B $0.02B 3.53%
2007-03-31 $0.53B $0.02B 4.00%
2006-12-31 $0.47B $0.02B 5.11%
2006-09-30 $0.42B $0.03B 5.98%
2006-06-30 $0.41B $0.01B 1.22%
2006-03-31 $0.41B $0.00B 0.48%
2005-12-31 $0.42B $0.00B 0.00%
Sector Industry Market Cap Revenue
Computer and Technology Computer Software $14.082B $3.110B
Open Text Corporation is engaged in development of innovative intranet, extranet and e-Business applications. Since creating one of the first search engines to index the World Wide Web, the company has remained at the forefront of Internet-based technologies. Open Text solutions allow individuals, teams, organizations, and global trading communities to collaborate on projects, share ideas and accelerate innovation to the fastest possible speed. Open Text Corporation is headquartered in Waterloo, Canada.
Stock Name Country Market Cap PE Ratio
Microsoft (MSFT) United States $2157.676B 36.03
Adobe (ADBE) United States $295.978B 63.79
Oracle (ORCL) United States $250.554B 21.47
Salesforce, Inc (CRM) United States $223.286B 69.09
SAP SE (SAP) Germany $178.796B 22.74
Intuit (INTU) United States $144.877B 69.03
Dassault Systemes SA (DASTY) France $74.871B 65.78
Autodesk (ADSK) United States $72.079B 124.10
VMware (VMW) United States $65.902B 30.67
Synopsys (SNPS) United States $44.125B 56.15
Cadence Design Systems (CDNS) United States $41.475B 58.08
ANSYS (ANSS) United States $32.318B 66.46
SS&C Technologies Holdings (SSNC) United States $19.574B 17.51
Nuance Communications (NUAN) United States $15.665B 144.10
PTC (PTC) United States $15.473B 54.27
Citrix Systems (CTXS) United States $12.796B 30.12
Manhattan Associates (MANH) United States $10.385B 110.68
Pegasystems (PEGA) United States $10.344B 0.00
Aspen Technology (AZPN) United States $9.865B 43.17
Trend Micro (TMICY) Japan $7.431B 29.02
Descartes Systems Group (DSGX) Canada $6.167B 107.18
MicroStrategy (MSTR) United States $6.092B 113.03
ACI Worldwide (ACIW) United States $3.959B 21.48
CommVault Systems (CVLT) United States $3.519B 91.32
Blackbaud (BLKB) United States $3.466B 59.16
Cornerstone OnDemand (CSOD) United States $3.229B 21.68
Verint Systems (VRNT) United States $2.764B 16.55
Progress Software (PRGS) United States $2.012B 15.53
PROS Holdings (PRO) United States $1.868B 0.00
Bottomline Technologies (EPAY) United States $1.826B 143.68
QAD (QADB) United States $1.781B 140.98
Avid Technology (AVID) United States $1.634B 41.08
Sapiens (SPNS) Israel $1.374B 25.08
Canaan (CAN) China $1.237B 0.00
OptimizeRx (OPRX) United States $0.974B 2789.00
Simulations Plus (SLP) United States $0.945B 82.33
Magic Software Enterprises (MGIC) Israel $0.851B 22.24
American Software (AMSWA) United States $0.728B 85.58
Icad Inc (ICAD) United States $0.363B 0.00
Smith Micro Software (SMSI) United States $0.278B 65.00
ServiceSource (SREV) United States $0.155B 0.00
Park City (PCYG) United States $0.109B 51.00
Neonode (NEON) Sweden $0.060B 0.00
NetSol Technologies (NTWK) United States $0.053B 21.18
BSQUARE (BSQR) United States $0.039B 0.00
GSE Systems (GVP) United States $0.028B 0.00
Duolingo (DUOL) United States $0.000B 0.00